Weather reports worldwide

Advertisment
Levens Hall, United Kingdom (99172): temperature & dewpoint: 11.01.2021 21:00:00 - 17.01.2021 21:00:00 (GMT)Levens Hall, United Kingdom (99172): precipitation: 11.01.2021 21:00:00 - 17.01.2021 21:00:00 (GMT)
Date & Time tt [°C] td [°C] rr [mm]
17.01.2021 21:00:00 5,8 4,6 0,2
17.01.2021 20:00:00 5,9 4,7 0,0
17.01.2021 19:00:00 6,0 4,4 0,0
17.01.2021 18:00:00 5,3 4,3 0,0
17.01.2021 17:00:00 5,4 3,8 0,0
17.01.2021 16:00:00 6,0 3,9 0,0
17.01.2021 15:00:00 6,7 4,1 0,0
17.01.2021 14:00:00 7,0 3,9 0,0
17.01.2021 13:00:00 6,9 4,2 0,0
17.01.2021 12:00:00 6,6 3,9 0,0
17.01.2021 11:00:00 6,2 4,1 0,0
17.01.2021 10:00:00 5,3 4,0 0,2
17.01.2021 09:00:00 5,1 3,2 0,0
17.01.2021 08:00:00 4,4 2,6 0,0
17.01.2021 07:00:00 4,0 2,0 0,0
17.01.2021 06:00:00 5,8 2,3 0,0
17.01.2021 05:00:00 4,7 1,9 0,0
17.01.2021 04:00:00 4,7 2,8 0,0
17.01.2021 03:00:00 4,8 2,9 0,4
17.01.2021 02:00:00 5,5 3,6 0,2
17.01.2021 01:00:00 6,3 3,2 0,0
17.01.2021 00:00:00 6,1 3,6 0,2
16.01.2021 23:00:00 6,7 3,2 0,0
16.01.2021 22:00:00 6,8 3,1 0,0
16.01.2021 21:00:00 6,9 3,1 0,0
16.01.2021 20:00:00 7,0 3,1 0,0
16.01.2021 19:00:00 6,6 2,8 0,0
16.01.2021 18:00:00 6,5 3,0 0,0
16.01.2021 17:00:00 7,1 4,2 0,2
16.01.2021 16:00:00 7,7 5,5 0,0
16.01.2021 15:00:00 8,3 5,8 0,2
16.01.2021 14:00:00 8,7 5,7 0,0
16.01.2021 13:00:00 8,6 6,1 0,0
16.01.2021 12:00:00 7,7 6,3 0,0
16.01.2021 11:00:00 7,7 6,1 0,0
16.01.2021 10:00:00 6,9 5,8 0,0
16.01.2021 09:00:00 5,8 5,4 0,2
16.01.2021 08:00:00 5,3 5,0 0,4
16.01.2021 07:00:00 4,7 4,3 1,2
16.01.2021 06:00:00 4,2 3,5 3,4
16.01.2021 05:00:00 3,2 2,8 4,8
16.01.2021 04:00:00 3,0 2,4 4,4
16.01.2021 03:00:00 2,3 1,5 2,0
16.01.2021 02:00:00 1,5 0,0 0,0
16.01.2021 01:00:00 1,0 -0,4 0,0
16.01.2021 00:00:00 -0,2 -0,7 0,0
15.01.2021 23:00:00 -0,3 -0,9 0,0
15.01.2021 22:00:00 0,0 -0,8 0,0
15.01.2021 21:00:00 -0,9 -1,1 0,0
15.01.2021 20:00:00 -1,8 -1,9 0,0
15.01.2021 19:00:00 -2,6 -3,0 0,0
15.01.2021 18:00:00 -1,2 -1,6 0,0
15.01.2021 17:00:00 -0,6 -1,2 0,0
15.01.2021 16:00:00 0,2 -0,3 0,0
15.01.2021 15:00:00 1,3 1,0 0,0
15.01.2021 14:00:00 0,9 0,4 0,0
15.01.2021 13:00:00 0,4 0,2 0,2
15.01.2021 12:00:00 -0,5 -0,7 0,0
15.01.2021 11:00:00 -1,3 -1,5 0,0
15.01.2021 10:00:00 -2,7 -3,0 0,0
15.01.2021 09:00:00 -3,0 -3,4 0,0
15.01.2021 08:00:00 -3,2 -3,5 0,0
15.01.2021 07:00:00 -3,2 -3,4 0,0
15.01.2021 06:00:00 -3,1 -3,3 0,0
15.01.2021 05:00:00 -2,6 -2,8 0,0
15.01.2021 04:00:00 -1,7 -1,8 0,0
15.01.2021 03:00:00 -1,8 -1,9 0,0
15.01.2021 02:00:00 -1,9 -2,0 0,0
15.01.2021 01:00:00 -0,9 -0,9 0,0
15.01.2021 00:00:00 -0,7 -0,8 0,0
14.01.2021 23:00:00 0,4 0,3 0,0
14.01.2021 22:00:00 0,7 0,7 0,0
14.01.2021 21:00:00 0,3 0,2 0,0
14.01.2021 20:00:00 0,2 0,0 0,0
14.01.2021 19:00:00 1,0 0,7 0,0
14.01.2021 18:00:00 1,5 1,1 0,0
14.01.2021 17:00:00 1,9 1,4 0,0
14.01.2021 16:00:00 2,1 1,5 0,2
14.01.2021 15:00:00 2,2 1,6 0,8
14.01.2021 14:00:00 1,2 1,1 1,4
14.01.2021 13:00:00 0,8 0,5 1,8
14.01.2021 12:00:00 0,6 0,2 1,2
14.01.2021 11:00:00 1,4 0,5 3,2
14.01.2021 10:00:00 2,8 1,9 2,4
14.01.2021 09:00:00 2,9 2,3 1,4
14.01.2021 08:00:00 3,3 2,7 2,2
14.01.2021 07:00:00 3,9 2,7 2,6
14.01.2021 06:00:00 4,3 2,6 1,0
14.01.2021 05:00:00 4,2 2,9 0,6
14.01.2021 04:00:00 4,4 3,0 0,6
14.01.2021 03:00:00 4,1 3,0 0,4
14.01.2021 02:00:00 4,1 2,7 0,4
14.01.2021 01:00:00 3,7 2,6 0,6
14.01.2021 00:00:00 3,4 2,6 0,6
13.01.2021 23:00:00 2,9 2,8 1,0
13.01.2021 22:00:00 2,8 2,7 1,8
13.01.2021 21:00:00 2,7 2,5 1,4
13.01.2021 20:00:00 2,7 2,4 0,8
13.01.2021 19:00:00 2,7 2,5 0,8
13.01.2021 18:00:00 2,7 2,4 0,2
13.01.2021 17:00:00 2,5 2,4 0,2
13.01.2021 16:00:00 2,6 2,3 1,0
13.01.2021 15:00:00 2,6 2,3 0,2
13.01.2021 14:00:00 2,4 2,0 0,4
13.01.2021 13:00:00 2,1 1,9 0,6
13.01.2021 12:00:00 1,6 1,4 2,0
13.01.2021 11:00:00 1,3 1,1 1,2
13.01.2021 10:00:00 0,7 0,5 0,6
13.01.2021 09:00:00 0,4 0,1 0,0
13.01.2021 08:00:00 0,2 -0,2 0,0
13.01.2021 07:00:00 -0,1 -0,6 0,0
13.01.2021 06:00:00 -0,1 -0,7 0,0
13.01.2021 05:00:00 -0,5 -1,0 0,0
13.01.2021 04:00:00 -0,8 -1,3 0,0
13.01.2021 03:00:00 -0,9 -1,4 0,0
13.01.2021 02:00:00 -1,2 -1,7 0,0
13.01.2021 01:00:00 -1,5 -1,8 0,0
13.01.2021 00:00:00 -1,8 -2,3 0,0
12.01.2021 23:00:00 -1,5 -1,9 0,0
12.01.2021 22:00:00 -1,5 -2,0 0,0
12.01.2021 21:00:00 -1,6 -1,9 0,0
12.01.2021 20:00:00 -1,8 -2,1 0,0
12.01.2021 19:00:00 -1,4 -1,7 0,0
12.01.2021 18:00:00 -1,2 -1,6 0,0
12.01.2021 17:00:00 -0,5 -1,2 0,0
12.01.2021 16:00:00 0,7 -0,6 0,0
12.01.2021 15:00:00 2,2 -0,6 0,0
12.01.2021 14:00:00 4,3 -1,3 0,0
12.01.2021 13:00:00 4,0 -0,8 0,0
12.01.2021 12:00:00 2,6 0,6 0,0
12.01.2021 11:00:00 0,2 -0,2 0,0
12.01.2021 10:00:00 -1,0 -1,2 0,0
12.01.2021 09:00:00 -1,9 -2,4 0,0
12.01.2021 08:00:00 -1,1 -1,7 0,0
12.01.2021 07:00:00 0,1 -0,7 0,0
12.01.2021 06:00:00 1,5 0,3 0,0
12.01.2021 05:00:00 2,7 1,2 0,0
12.01.2021 04:00:00 4,1 2,1 0,0
12.01.2021 03:00:00 5,1 3,3 0,0
12.01.2021 02:00:00 6,2 5,6 0,2
12.01.2021 01:00:00 7,1 6,3 0,6
12.01.2021 00:00:00 7,6 6,5 0,2
11.01.2021 23:00:00 7,7 6,7 0,6
11.01.2021 22:00:00 7,8 6,7 0,6
11.01.2021 21:00:00 7,9 7,0 0,4

tt = temperature
td = dewpoint
rr = precipitation

Next stations